SCP
0 0 0 0 0 0 0 0 0 0 0 0 0 0 0 0 0 0 0 0 0 0
0 0 0 0 0 0 0 0 0 0 0 0 0 0 0 0 0 0 0 0 0 0
0 0 0 0 0 0 0 0 0 0 0 0 0 0 0 0 0 0 0 0 0 0
0 0 0 0 0 0 0 0 0 0 0 0 0 0 0 0 0 0 0 0 0 0
0 0 0 0 0 0 0 0 0 0 0 0 0 0 0 0 0 0 0 0 0 0
0 0 0 0 0 0 0 0 0 0 0 0 0 0 0 0 0 0 0 0 0 0
0 0 0 0 0 0 0 0 0 0 0 0 0 0 0 0 0 0 0 0 0 0
0 0 0 0 0 0 0 0 0 0 0 0 0 0 0 0 0 0 0 0 0 0
0 0 0 0 0 0 0 0 0 0 0 0 0 0 0 0 0 0 0 0 0 0
0 0 0 0 0 0 0 0 0 0 0 0 0 0 0 0 0 0 0 0 0 0
0 0 0 0 0 0 0 0 0 0 0 0 0 0 0 0 0 0 0 0 0 0
0 0 0 0 0 0 0 0 0 0 0 0 0 0 0 0 0 0 0 0 0 0
0 0 0 0 0 0 0 0 0 0 0 0 0 0 0 0 0 0 0 0 0 0
0 0 0 0 0 0 0 0 0 0 0 0 0 0 0 0 0 0 0 0 0 0
Wind_Speed_500mb
101 98 96 97 94 88 86 83 83 86 84 81 78 75 71 67 62 57 52 47 43 42
97 99 101 100 95 91 85 83 80 79 79 79 79 77 75 72 66 61 56 51 48 46
93 94 99 99 96 93 89 87 83 80 77 77 79 79 79 76 70 66 61 57 54 50
92 95 96 99 101 98 96 91 87 83 79 78 80 83 83 79 74 72 68 64 59 54
89 93 97 105 106 104 104 100 95 87 82 80 83 86 87 85 83 79 75 66 61 55
93 98 95 103 105 102 104 105 101 96 91 87 86 89 90 88 85 80 74 68 62 56
95 96 93 97 102 101 98 101 105 101 94 91 88 88 89 90 86 81 76 70 63 57
89 95 97 95 101 105 98 99 101 98 95 92 90 92 92 92 88 83 77 70 63 59
96 103 99 96 103 100 98 97 96 97 94 92 94 93 92 89 88 84 77 70 64 58
84 87 81 87 93 97 97 94 94 92 92 91 93 90 90 88 85 81 75 69 65 59
71 77 78 84 90 91 91 92 92 92 91 92 92 88 90 89 86 82 75 69 61 54
51 59 70 75 79 83 84 86 89 91 90 94 91 90 89 89 84 80 73 66 61 54
38 41 53 63 70 78 81 83 85 90 90 90 87 90 92 91 83 79 73 64 58 54
34 36 39 46 57 63 67 72 78 82 88 90 84 88 88 91 84 77 70 63 60 50
Wind_Direction_500mb
232 234 235 237 237 237 239 239 240 238 238 239 239 239 239 239 241 244 247 251 256 261
232 234 237 238 237 239 241 241 240 239 240 239 239 239 239 239 240 242 244 247 253 259
237 239 241 242 241 240 240 241 240 239 237 237 237 237 238 238 237 238 241 244 249 253
241 242 245 246 244 241 242 241 240 238 235 235 234 235 236 237 236 238 239 242 245 250
247 246 245 246 245 243 244 242 242 239 236 234 233 234 235 235 234 235 237 240 243 247
251 248 248 247 247 247 246 245 243 239 236 234 232 233 232 233 234 235 236 239 241 245
255 253 250 248 248 250 247 245 243 240 237 235 233 233 231 231 232 232 234 236 239 242
267 257 252 250 251 249 248 247 244 239 235 232 231 230 228 229 231 231 232 234 237 240
261 256 253 251 247 246 247 245 241 236 234 232 230 229 228 229 229 229 230 232 235 238
270 262 262 255 250 248 246 243 238 234 232 230 230 228 228 228 229 230 231 231 231 234
279 274 265 256 252 247 244 242 238 233 229 227 227 225 226 227 227 228 228 230 232 233
289 280 271 261 254 248 241 239 235 233 227 225 221 219 224 226 225 224 225 227 229 231
309 289 276 265 255 247 241 236 232 231 228 227 220 219 219 224 222 221 220 221 226 231
330 311 283 269 257 248 240 236 232 230 227 223 220 219 222 225 223 220 219 218 223 231
Wind_Speed_850mb
101 98 96 97 94 88 86 83 83 86 84 81 78 75 71 67 62 57 52 47 43 42
97 99 101 100 95 91 85 83 80 79 79 79 79 77 75 72 66 61 56 51 48 46
93 94 99 99 96 93 89 87 83 80 77 77 79 79 79 76 70 66 61 57 54 50
92 95 96 99 101 98 96 91 87 83 79 78 80 83 83 79 74 72 68 64 59 54
89 93 97 105 106 104 104 100 95 87 82 80 83 86 87 85 83 79 75 66 61 55
93 98 95 103 105 102 104 105 101 96 91 87 86 89 90 88 85 80 74 68 62 56
95 96 93 97 102 101 98 101 105 101 94 91 88 88 89 90 86 81 76 70 63 57
89 95 97 95 101 105 98 99 101 98 95 92 90 92 92 92 88 83 77 70 63 59
96 103 99 96 103 100 98 97 96 97 94 92 94 93 92 89 88 84 77 70 64 58
84 87 81 87 93 97 97 94 94 92 92 91 93 90 90 88 85 81 75 69 65 59
71 77 78 84 90 91 91 92 92 92 91 92 92 88 90 89 86 82 75 69 61 54
51 59 70 75 79 83 84 86 89 91 90 94 91 90 89 89 84 80 73 66 61 54
38 41 53 63 70 78 81 83 85 90 90 90 87 90 92 91 83 79 73 64 58 54
34 36 39 46 57 63 67 72 78 82 88 90 84 88 88 91 84 77 70 63 60 50
Wind_Direction_850mb
232 234 235 237 237 237 239 239 240 238 238 239 239 239 239 239 241 244 247 251 256 261
232 234 237 238 237 239 241 241 240 239 240 239 239 239 239 239 240 242 244 247 253 259
237 239 241 242 241 240 240 241 240 239 237 237 237 237 238 238 237 238 241 244 249 253
241 242 245 246 244 241 242 241 240 238 235 235 234 235 236 237 236 238 239 242 245 250
247 246 245 246 245 243 244 242 242 239 236 234 233 234 235 235 234 235 237 240 243 247
251 248 248 247 247 247 246 245 243 239 236 234 232 233 232 233 234 235 236 239 241 245
255 253 250 248 248 250 247 245 243 240 237 235 233 233 231 231 232 232 234 236 239 242
267 257 252 250 251 249 248 247 244 239 235 232 231 230 228 229 231 231 232 234 237 240
261 256 253 251 247 246 247 245 241 236 234 232 230 229 228 229 229 229 230 232 235 238
270 262 262 255 250 248 246 243 238 234 232 230 230 228 228 228 229 230 231 231 231 234
279 274 265 256 252 247 244 242 238 233 229 227 227 225 226 227 227 228 228 230 232 233
289 280 271 261 254 248 241 239 235 233 227 225 221 219 224 226 225 224 225 227 229 231
309 289 276 265 255 247 241 236 232 231 228 227 220 219 219 224 222 221 220 221 226 231
330 311 283 269 257 248 240 236 232 230 227 223 220 219 222 225 223 220 219 218 223 231